Location: Banksville Park
(38.5557°N, 75.1182°W)
Time: 15:30:27
(UTC+00:00)

USA 234 - Pass Details

Date: 19 September 2020
Orbit: 1102 x 1106 km, 123.0° (Epoch: 16 October)

Event Time Altitude Azimuth Distance (km) Brightness Sun altitude
Rises 23:58:01 0° 51° (NE) 3,924 5.8 -11.5°
Reaches altitude 10° 00:00:39 10° 58° (ENE) 2,964 5.1 -12.0°
Maximum altitude 00:06:50 44° 128° (SE) 1,483 3.6 -13.2°
Drops below altitude 10° 00:13:00 10° 199° (SSW) 2,954 5.6 -14.4°
Sets 00:15:37 0° 206° (SSW) 3,909 6.3 -14.9°
